Location: Unspecified
(0.0000°N, 0.0000°E)
Time: 22:56:55
(UTC+00:00)

Envisat - Pass Details

Date: 19 January 2022
Orbit: 764 x 766 km, 98.2° (Epoch: 27 January)

Event Time Altitude Azimuth Distance (km) Brightness Sun altitude
Rises 05:32:10 0° 339° (NNW) 3,213 5.8 -9.0°
Reaches altitude 10° 05:35:28 10° 316° (NW) 2,291 4.9 -8.2°
Maximum altitude 05:38:12 15° 282° (WNW) 1,982 4.5 -7.6°
Drops below altitude 10° 05:40:58 10° 249° (WSW) 2,297 5.0 -7.0°
Sets 05:44:18 0° 226° (SW) 3,227 6.0 -6.2°
